Location: Newark
(52.3735°N, 16.9806°E)
Time: 03:49:39
(UTC+00:00)

LilacSat-2 - Pass Details

Date: 30 November 2021
Orbit: 511 x 532 km, 97.5° (Epoch: 16 January)

Event Time Altitude Azimuth Distance (km) Brightness Sun altitude
Rises 16:42:50 0° 202° (SSW) 2,624 ? -17.4°
Reaches altitude 10° 16:45:21 10° 219° (SW) 1,747 ? -17.7°
Maximum altitude 16:48:11 20° 268° (W) 1,247 ? -18.2°
Drops below altitude 10° 16:51:02 10° 317° (NW) 1,768 ? -18.6°
Sets 16:53:36 0° 335° (NNW) 2,667 ? -19.0°
